Volver al catálogo

COSMOS 1348 DEB

LostHEO
NORAD 32772·DEBRIS·🇷🇺 Russia

Lanzado Apr 7, 1982 desde Plesetsk Cosmodrome

Loading…

Próximos Pases (próximas 24 horas)

TLE

ObsoletoSource: Space-Track

Época: Apr 19, 2021, 11:13 UTC

1 32772U 82029F   21109.46750279  .00000119  00000-0  00000+0 0  9995
2 32772  71.8534 279.0506 4551974  37.8642 307.0716  1.93634119101974

Sigue COSMOS 1348 DEB en tiempo real con AllMySat

Download on the App Store